[Iaude] MPEC A161: 2024 AE4 [a=2.16,e=0.55,i=0.9,H=28.7]
    mpec at marsden.cfa.harvard.edu 
    mpec at marsden.cfa.harvard.edu
       
    Sun Jan 14 12:50:58 EST 2024
    
    
  
M.P.E.C. 2024-A161                             Issued 2024 January 14, 17:49 UT
     The Minor Planet Electronic Circulars contain information on unusual
         minor planets, routine data on comets and natural satellites,
         and occasional editorial announcements.  They are published
    on behalf of Division F of the International Astronomical Union by the
          Minor Planet Center, Smithsonian Astrophysical Observatory,
                          Cambridge, MA 02138, U.S.A.
			  
             Prepared using the Tamkin Foundation Computer Network
                              MPC at CFA.HARVARD.EDU
            URL https://www.minorplanetcenter.net/    ISSN 1523-6714
                                    2024 AE4                                    
Observations:
     K24A04E*1C2024 01 13.35799708 42 37.879+03 52 25.32         19.85GVEA161G96
     K24A04E 1C2024 01 13.36318608 42 50.915+03 53 10.75         20.80GVEA161G96
     K24A04E 1C2024 01 13.37352608 43 16.781+03 54 40.75         19.87GVEA161G96
     K24A04E KC2024 01 13.41442908 44 58.160+04 00 31.25         19.66GVEA161V06
     K24A04E KC2024 01 13.41569208 45 01.303+04 00 41.80         20.31GVEA161V06
     K24A04E KC2024 01 13.41695308 45 04.399+04 00 52.60         20.50GVEA161V06
     K24A04E KC2024 01 13.41821708 45 07.510+04 01 02.93         19.87GVEA161V06
     K24A04E KC2024 01 13.46591908 47 03.590+04 07 35.40         20.85GVEA161V06
     K24A04E KC2024 01 13.46659708 47 05.220+04 07 41.80         20.65GVEA161V06
     K24A04E KC2024 01 13.46727408 47 06.900+04 07 46.60         20.36GVEA161V06
     K24A04E pC2024 01 13.96955009 06 36.37 +05 05 47.1          20.6 GVEA161L01
     K24A04E KC2024 01 13.97140009 06 39.78 +05 05 58.2          20.8 GVEA161L01
     K24A04E KC2024 01 13.97325009 06 43.15 +05 06 09.7          20.8 GVEA161L01
Observer details:
G96 Mt. Lemmon Survey.  Observer H. Groeller.  Measurers T. Beuden, V. F.
    Carvajal, D. Fay, J. B. Fazekas, D. C. Fuls, A. R. Gibbs, A. D. Grauer, H.
    Groeller, J. K. Hogan, R. A. Kowalski, S. M. Larson, G. J. Leonard, D.
    Rankin, R. L. Seaman, F. C. Shelly, K. W. Wierzchos.  1.5-m reflector +
    10K CCD.
L01 Visnjan Observatory, Tican.  Observers K. Korlevic, L. Poropat.  Measurer
    K. Korlevic.  1.0-m f/2.9 reflector + CCD.
V06 Catalina Sky Survey-Kuiper.  Observer K. W. Wierzchos.  Measurers T.
    Beuden, V. F. Carvajal, D. Fay, J. B. Fazekas, D. C. Fuls, A. R. Gibbs, A.
    D. Grauer, H. Groeller, J. K. Hogan, R. A. Kowalski, S. M. Larson, G. J.
    Leonard, D. Rankin, R. L. Seaman, F. C. Shelly, K. W. Wierzchos.  1.55-m
    reflector + 1K CCD.
Orbital elements:
2024 AE4                                                 Earth MOID = 0.0046 AU
Epoch 2023 Sept. 13.0 TT = JDT 2460200.5                Bell                    
M 327.83124              (2000.0)            P               Q                  
n   0.31018716     Peri.  324.10611     +0.01866812     -0.99973892             
a   2.1613255      Node   124.82068     +0.92102444     +0.01206744             
e   0.5528806      Incl.    0.91960     +0.38905716     +0.01940289             
P   3.18           H   28.72          G   0.15           U   8                  
Residuals in seconds of arc
240113 G96  0.2+  0.0     240113 V06  0.6+  0.3+    240113 L01  0.1-  0.3+
240113 G96  0.2-  0.1-    240113 V06  0.8+  0.1+    240113 L01  0.2+  0.1-
240113 G96 (1.2-  0.2-)   240113 V06  0.5-  0.6-    240113 L01  0.1-  0.1-
240113 V06  0.1+  0.2+    240113 V06  0.6-  0.3+
240113 V06  0.7+  0.1+    240113 V06  0.0   0.3-
Ephemeris:
2024 AE4                 a,e,i = 2.16, 0.55, 1                   q = 0.9664
Date    TT    R. A. (2000) Decl.     Delta      r    Elong.  Phase     V
2023 12 15    23 13 33.7 -10 56 56   0.1243  0.9764    82.7    90.1    27.3
...
2023 12 30    23 36 57.7 -11 02 10   0.05709 0.9680    72.8   104.0    26.3
...
2024 01 07    00 39 34.0 -12 06 55   0.02065 0.9795    78.8   100.0    23.9
...
2024 01 13    08 24 28.0 +02 59 18   0.01245 0.9951   157.8    21.9    20.2
2024 01 14    09 07 25.5 +05 14 35   0.01635 0.9982   153.2    26.4    21.0
2024 01 15    09 33 22.4 +06 31 42   0.02061 1.0015   149.6    29.8    21.6
...
2024 01 21    10 25 59.2 +09 00 39   0.04833 1.0240   145.2    33.3    23.6
...
2024 01 29    10 39 57.4 +09 58 04   0.08710 1.0614   150.4    27.3    24.8
...
2024 02 13    10 40 32.4 +11 04 21   0.1665  1.1493   165.7    12.2    25.9
M. P. C. Staff               (C) Copyright 2024 MPC           M.P.E.C. 2024-A161
    
    
More information about the Iaude
mailing list